When you browse on this site, cookies collect data to enhance your experience and personalize the content and advertising you see.
Visit our Privacy Policy to learn more. By continuing to use the site, you agree to this use of cookies and data.
  • In Sweden
  • List of Countries
  • For 7 days
  • Water Temperature
  • Satellite Maps
  • Weather Map
  • Weather Widgets
  • user-avatar
    Login

    Hourly Weather Linz

    Today, 18 June, Tuesday

    Time Temperature Precipitation Wind Pressure Humidity
    00:00 +17°C° 0 mm 2 mps 735 mmHg 87%
    01:00 +17°C° 0 mm 2 mps 735 mmHg 87%
    02:00 +17°C° 0 mm 2 mps 735 mmHg 87%
    03:00 +16°C° 0 mm 2 mps 735 mmHg 87%
    04:00 +16°C° 0 mm 1 mps 734 mmHg 87%
    05:00 +17°C° 0 mm 2 mps 734 mmHg 84%
    06:00 +18°C° 0 mm 2 mps 735 mmHg 81%
    07:00 +19°C° 0 mm 2 mps 735 mmHg 78%
    08:00 +21°C° 0 mm 2 mps 735 mmHg 75%
    09:00 +23°C° 0 mm 2 mps 734 mmHg 72%
    10:00 +25°C° 0 mm 3 mps 734 mmHg 68%
    11:00 +26°C° 0 mm 3 mps 734 mmHg 65%
    12:00 +27°C° 0 mm 3 mps 734 mmHg 61%
    13:00 +28°C° 0 mm 2 mps 733 mmHg 58%
    14:00 +28°C° 0.2 mm 3 mps 733 mmHg 60%
    15:00 +28°C° 0.2 mm 3 mps 733 mmHg 62%
    16:00 +28°C° 0.2 mm 3 mps 733 mmHg 65%
    17:00 +27°C° 0.1 mm 2 mps 733 mmHg 70%
    18:00 +26°C° 0.1 mm 2 mps 732 mmHg 75%
    19:00 +24°C° 0.1 mm 2 mps 732 mmHg 80%
    20:00 +23°C° 0 mm 2 mps 733 mmHg 83%
    21:00 +21°C° 0 mm 1 mps 733 mmHg 86%
    22:00 +20°C° 0 mm 1 mps 733 mmHg 89%
    23:00 +19°C° 0 mm 1 mps 733 mmHg 90%

    Tomorrow, 19 June, Wednesday

    Time Temperature Precipitation Wind Pressure Humidity
    00:00 +18°C° 0 mm 1 mps 733 mmHg 90%
    01:00 +18°C° 0 mm 1 mps 733 mmHg 91%
    02:00 +16°C° 0 mm 1 mps 732 mmHg 91%
    03:00 +15°C° 0 mm 0 mps 732 mmHg 91%
    04:00 +15°C° 0 mm 0 mps 732 mmHg 92%
    05:00 +16°C° 0 mm 0 mps 732 mmHg 89%
    06:00 +20°C° 0 mm 1 mps 732 mmHg 86%
    07:00 +21°C° 0 mm 1 mps 732 mmHg 83%
    08:00 +23°C° 0 mm 1 mps 732 mmHg 78%
    09:00 +24°C° 0 mm 1 mps 732 mmHg 74%
    10:00 +26°C° 0 mm 1 mps 731 mmHg 69%
    11:00 +27°C° 0 mm 1 mps 731 mmHg 64%
    12:00 +28°C° 0 mm 1 mps 731 mmHg 59%
    13:00 +29°C° 0 mm 1 mps 731 mmHg 54%
    14:00 +28°C° 0.2 mm 2 mps 731 mmHg 58%
    15:00 +28°C° 0.2 mm 2 mps 731 mmHg 62%
    16:00 +27°C° 0.2 mm 3 mps 731 mmHg 66%
    17:00 +25°C° 0.2 mm 3 mps 731 mmHg 71%
    18:00 +23°C° 0.2 mm 2 mps 731 mmHg 77%
    19:00 +21°C° 0.2 mm 1 mps 731 mmHg 83%
    20:00 +20°C° 0 mm 1 mps 731 mmHg 83%
    21:00 +19°C° 0 mm 1 mps 731 mmHg 83%
    22:00 +18°C° 0 mm 1 mps 731 mmHg 83%
    23:00 +18°C° 0 mm 1 mps 731 mmHg 83%

    Day after tomorrow, 20 June, Thursday

    Time Temperature Precipitation Wind Pressure Humidity
    00:00 +16°C° 0 mm 1 mps 731 mmHg 83%
    01:00 +15°C° 0 mm 0 mps 731 mmHg 83%
    02:00 +15°C° 0 mm 0 mps 731 mmHg 83%
    03:00 +15°C° 0 mm 0 mps 731 mmHg 84%
    04:00 +14°C° 0 mm 0 mps 731 mmHg 84%
    05:00 +16°C° 0 mm 0 mps 731 mmHg 82%
    06:00 +17°C° 0 mm 0 mps 731 mmHg 80%
    07:00 +18°C° 0 mm 0 mps 731 mmHg 79%
    08:00 +20°C° 0 mm 0 mps 731 mmHg 74%
    09:00 +22°C° 0 mm 0 mps 731 mmHg 69%
    10:00 +26°C° 0 mm 1 mps 731 mmHg 64%
    11:00 +27°C° 0 mm 1 mps 731 mmHg 60%
    12:00 +28°C° 0 mm 2 mps 731 mmHg 57%
    13:00 +29°C° 0 mm 2 mps 730 mmHg 54%
    14:00 +30°C° 0 mm 2 mps 730 mmHg 53%
    15:00 +30°C° 0 mm 3 mps 730 mmHg 53%
    16:00 +30°C° 0 mm 3 mps 730 mmHg 53%
    17:00 +28°C° 0.1 mm 3 mps 730 mmHg 61%
    18:00 +27°C° 0.1 mm 3 mps 730 mmHg 68%
    19:00 +25°C° 0.1 mm 3 mps 730 mmHg 75%
    20:00 +22°C° 3.1 mm 3 mps 731 mmHg 82%
    21:00 +20°C° 3.1 mm 4 mps 731 mmHg 89%
    22:00 +17°C° 3.1 mm 5 mps 732 mmHg 96%
    23:00 +18°C° 0.5 mm 4 mps 732 mmHg 95%

    21 June, Friday

    Time Temperature Precipitation Wind Pressure Humidity
    00:00 +18°C° 0.5 mm 3 mps 732 mmHg 94%
    01:00 +18°C° 0.5 mm 3 mps 732 mmHg 94%
    02:00 +18°C° 0 mm 2 mps 732 mmHg 94%
    03:00 +17°C° 0 mm 2 mps 732 mmHg 94%
    04:00 +18°C° 0 mm 1 mps 732 mmHg 94%
    05:00 +19°C° 0 mm 1 mps 733 mmHg 92%
    06:00 +20°C° 0 mm 1 mps 733 mmHg 90%
    07:00 +20°C° 0 mm 1 mps 733 mmHg 88%
    08:00 +21°C° 0.3 mm 1 mps 733 mmHg 84%
    09:00 +23°C° 0.3 mm 1 mps 733 mmHg 79%
    10:00 +24°C° 0.3 mm 2 mps 733 mmHg 75%
    11:00 +24°C° 0.9 mm 2 mps 733 mmHg 76%
    12:00 +24°C° 0.9 mm 3 mps 733 mmHg 77%
    13:00 +24°C° 0.9 mm 3 mps 733 mmHg 78%
    14:00 +24°C° 0.9 mm 3 mps 733 mmHg 77%
    15:00 +24°C° 0.9 mm 2 mps 733 mmHg 77%
    16:00 +24°C° 0.9 mm 2 mps 732 mmHg 77%
    17:00 +24°C° 1 mm 2 mps 732 mmHg 80%
    18:00 +23°C° 1 mm 1 mps 733 mmHg 84%
    19:00 +22°C° 1 mm 1 mps 733 mmHg 87%
    20:00 +21°C° 0.6 mm 1 mps 733 mmHg 88%
    21:00 +20°C° 0.6 mm 1 mps 733 mmHg 89%
    22:00 +19°C° 0.6 mm 1 mps 734 mmHg 90%
    23:00 +19°C° 0.2 mm 1 mps 734 mmHg 91%

    22 June, Saturday

    Time Temperature Precipitation Wind Pressure Humidity
    00:00 +19°C° 0.2 mm 1 mps 734 mmHg 91%
    01:00 +16°C° 0.2 mm 0 mps 734 mmHg 91%
    02:00 +16°C° 0.2 mm 0 mps 734 mmHg 92%
    03:00 +15°C° 0.2 mm 0 mps 734 mmHg 93%
    04:00 +15°C° 0.2 mm 0 mps 734 mmHg 93%
    05:00 +16°C° 0.1 mm 0 mps 734 mmHg 92%
    06:00 +17°C° 0.1 mm 0 mps 734 mmHg 92%
    07:00 +20°C° 0.1 mm 1 mps 735 mmHg 91%
    08:00 +20°C° 0.1 mm 1 mps 734 mmHg 88%
    09:00 +21°C° 0.1 mm 1 mps 734 mmHg 86%
    10:00 +20°C° 0.1 mm 2 mps 734 mmHg 84%
    11:00 +23°C° 0.1 mm 2 mps 734 mmHg 77%
    12:00 +24°C° 0.1 mm 3 mps 734 mmHg 71%
    13:00 +25°C° 0.1 mm 3 mps 734 mmHg 64%
    14:00 +25°C° 0.4 mm 4 mps 734 mmHg 68%
    15:00 +25°C° 0.4 mm 4 mps 733 mmHg 72%
    16:00 +25°C° 0.4 mm 4 mps 733 mmHg 76%
    17:00 +23°C° 1.5 mm 4 mps 733 mmHg 81%
    18:00 +21°C° 1.5 mm 3 mps 733 mmHg 86%
    19:00 +20°C° 1.5 mm 3 mps 733 mmHg 90%
    20:00 +20°C° 2 mm 2 mps 734 mmHg 92%
    21:00 +19°C° 2 mm 2 mps 734 mmHg 94%
    22:00 +19°C° 2 mm 1 mps 734 mmHg 97%
    23:00 +19°C° 1.2 mm 1 mps 734 mmHg 97%

    23 June, Sunday

    Time Temperature Precipitation Wind Pressure Humidity
    00:00 +19°C° 1.2 mm 1 mps 734 mmHg 97%
    01:00 +19°C° 1.2 mm 1 mps 734 mmHg 97%
    02:00 +18°C° 0.3 mm 1 mps 734 mmHg 96%
    03:00 +16°C° 0.3 mm 0 mps 734 mmHg 95%
    04:00 +15°C° 0.3 mm 0 mps 734 mmHg 94%
    05:00 +18°C° 0 mm 1 mps 735 mmHg 93%
    06:00 +19°C° 0 mm 1 mps 735 mmHg 92%
    07:00 +20°C° 0 mm 1 mps 735 mmHg 91%
    08:00 +21°C° 0 mm 1 mps 735 mmHg 85%
    09:00 +21°C° 0 mm 2 mps 735 mmHg 80%
    10:00 +23°C° 0 mm 2 mps 736 mmHg 74%
    11:00 +24°C° 0 mm 2 mps 735 mmHg 70%
    12:00 +25°C° 0 mm 2 mps 735 mmHg 65%
    13:00 +26°C° 0 mm 2 mps 735 mmHg 61%
    14:00 +27°C° 0 mm 2 mps 736 mmHg 60%
    15:00 +27°C° 0 mm 2 mps 736 mmHg 59%
    16:00 +27°C° 0 mm 2 mps 736 mmHg 58%
    17:00 +26°C° 0 mm 1 mps 736 mmHg 64%
    18:00 +25°C° 0 mm 1 mps 736 mmHg 70%
    19:00 +23°C° 0 mm 1 mps 736 mmHg 76%
    20:00 +22°C° 0 mm 1 mps 737 mmHg 81%
    21:00 +20°C° 0 mm 1 mps 737 mmHg 87%
    22:00 +18°C° 0 mm 1 mps 737 mmHg 93%
    23:00 +17°C° 0 mm 2 mps 737 mmHg 94%
    Show more